�������l�o���
Date,Time,MP-1(��Sv/h),MP-2(��Sv/h),MP-3(��Sv/h),MP-4(��Sv/h),MP-5(��Sv/h),MP-6(��Sv/h),MP-7(��Sv/h),MP-8(��Sv/h),����,����(m/s),���J
2016/11/11,00:00,1.128,1.951,1.312,2.197,1.534,0.583,1.072,0.987,���쐼,0.6,��
2016/11/11,00:10,1.127,1.951,1.313,2.199,1.535,0.583,1.076,0.987,-,CALM,��
2016/11/11,00:20,1.127,1.951,1.313,2.197,1.533,0.582,1.073,0.988,-,CALM,��
2016/11/11,00:30,1.129,1.948,1.310,2.198,1.535,0.583,1.074,0.986,���쐼,0.6,��
2016/11/11,00:40,1.130,1.953,1.313,2.199,1.532,0.582,1.072,0.987,-,CALM,��
2016/11/11,00:50,1.127,1.954,1.312,2.198,1.533,0.582,1.072,0.987,�k�k��,0.6,��
2016/11/11,01:00,1.128,1.953,1.313,2.194,1.530,0.583,1.073,0.987,-,CALM,��
2016/11/11,01:10,1.129,1.954,1.310,2.199,1.532,0.583,1.075,0.989,�k�k��,1.4,��
2016/11/11,01:20,1.127,1.953,1.311,2.197,1.533,0.582,1.074,0.986,�k�k��,0.8,��
2016/11/11,01:30,1.131,1.955,1.310,2.201,1.537,0.582,1.074,0.990,�k,1.5,��
2016/11/11,01:40,1.129,1.956,1.312,2.198,1.535,0.583,1.074,0.987,�k,1.9,��
2016/11/11,01:50,1.128,1.955,1.313,2.198,1.533,0.584,1.073,0.989,�k,2.0,��
2016/11/11,02:00,1.128,1.956,1.312,2.203,1.535,0.582,1.074,0.988,�k,3.0,��
2016/11/11,02:10,1.128,1.950,1.313,2.201,1.535,0.585,1.075,0.989,�k,2.8,��
2016/11/11,02:20,1.127,1.953,1.312,2.196,1.533,0.584,1.073,0.989,�k�k��,3.6,��
2016/11/11,02:30,1.130,1.955,1.312,2.197,1.534,0.582,1.073,0.988,�k�k��,3.6,��
2016/11/11,02:40,1.126,1.955,1.315,2.201,1.532,0.582,1.073,0.989,�k�k��,4.5,��
2016/11/11,02:50,1.128,1.954,1.313,2.203,1.535,0.582,1.075,0.989,�k�k��,4.2,��
2016/11/11,03:00,1.130,1.953,1.315,2.201,1.533,0.583,1.075,0.988,�k�k��,4.5,�L
2016/11/11,03:10,1.128,1.953,1.312,2.198,1.536,0.583,1.074,0.988,�k�k��,5.3,�L
2016/11/11,03:20,1.126,1.946,1.312,2.201,1.533,0.583,1.074,0.989,�k�k��,5.3,�L
2016/11/11,03:30,1.127,1.943,1.310,2.196,1.530,0.585,1.073,0.990,�k�k��,5.5,�L
2016/11/11,03:40,1.125,1.939,1.308,2.194,1.521,0.582,1.072,0.986,�k�k��,6.5,�L
2016/11/11,03:50,1.123,1.934,1.305,2.186,1.518,0.582,1.069,0.985,�k�k��,4.7,�L
2016/11/11,04:00,1.120,1.930,1.304,2.189,1.513,0.582,1.070,0.985,�k�k��,5.0,�L
2016/11/11,04:10,1.119,1.928,1.298,2.181,1.511,0.583,1.069,0.985,�k�k��,4.6,�L
2016/11/11,04:20,1.119,1.924,1.299,2.178,1.505,0.581,1.070,0.984,�k�k��,4.2,�L
2016/11/11,04:30,1.114,1.919,1.296,2.176,1.502,0.580,1.068,0.983,�k��,4.0,�L
2016/11/11,04:40,1.110,1.912,1.291,2.169,1.496,0.578,1.066,0.980,�k�k��,5.3,�L
2016/11/11,04:50,1.110,1.905,1.288,2.164,1.490,0.579,1.065,0.980,�k��,2.5,�L
2016/11/11,05:00,1.106,1.897,1.284,2.158,1.485,0.578,1.063,0.979,-,CALM,�L
2016/11/11,05:10,1.103,1.894,1.282,2.152,1.480,0.578,1.062,0.979,�k�k��,6.1,�L
2016/11/11,05:20,1.100,1.888,1.277,2.143,1.477,0.575,1.060,0.977,�k�k��,5.7,�L
2016/11/11,05:30,1.097,1.879,1.277,2.138,1.475,0.575,1.059,0.977,�k�k��,5.8,�L
2016/11/11,05:40,1.096,1.874,1.274,2.127,1.467,0.574,1.059,0.974,�k�k��,6.1,�L
2016/11/11,05:50,1.094,1.870,1.271,2.120,1.463,0.572,1.058,0.973,�k�k��,6.7,�L
2016/11/11,06:00,1.091,1.866,1.266,2.112,1.456,0.572,1.055,0.972,�k�k��,7.0,�L
2016/11/11,06:10,1.089,1.860,1.264,2.110,1.454,0.570,1.052,0.973,�k�k��,7.4,�L
2016/11/11,06:20,1.087,1.855,1.264,2.103,1.453,0.572,1.054,0.972,�k�k��,6.5,�L
2016/11/11,06:30,1.088,1.858,1.262,2.104,1.450,0.571,1.050,0.972,�k�k��,7.0,�L
2016/11/11,06:40,1.087,1.854,1.261,2.098,1.448,0.569,1.050,0.970,�k�k��,7.6,�L
2016/11/11,06:50,1.081,1.849,1.259,2.096,1.444,0.569,1.049,0.970,�k�k��,7.7,�L
2016/11/11,07:00,1.083,1.842,1.255,2.094,1.443,0.569,1.047,0.966,�k��,7.6,�L
2016/11/11,07:10,1.079,1.840,1.254,2.086,1.438,0.566,1.046,0.965,�k��,7.7,�L
2016/11/11,07:20,1.077,1.835,1.250,2.083,1.434,0.568,1.045,0.965,-,CALM,�L
2016/11/11,07:30,1.075,1.830,1.249,2.081,1.434,0.566,1.044,0.962,-,CALM,�L
2016/11/11,07:40,1.071,1.824,1.244,2.073,1.427,0.569,1.042,0.964,-,CALM,�L
2016/11/11,07:50,1.071,1.821,1.240,2.070,1.427,0.566,1.041,0.962,�k��,5.8,�L
2016/11/11,08:00,1.071,1.823,1.245,2.077,1.426,0.567,1.043,0.963,�k�k��,6.2,�L
2016/11/11,08:10,1.069,1.824,1.245,2.073,1.426,0.566,1.039,0.964,�k�k��,6.4,�L
2016/11/11,08:20,1.073,1.827,1.243,2.077,1.425,0.565,1.043,0.962,�k�k��,6.3,�L
2016/11/11,08:30,1.075,1.832,1.245,2.074,1.424,0.566,1.041,0.964,�k�k��,7.0,�L
2016/11/11,08:40,1.074,1.831,1.245,2.074,1.426,0.568,1.042,0.964,�k�k��,8.0,�L
2016/11/11,08:50,1.071,1.826,1.243,2.075,1.423,0.566,1.041,0.965,�k��,9.5,�L
2016/11/11,09:00,1.070,1.819,1.240,2.065,1.416,0.564,1.041,0.961,�k��,7.8,�L
2016/11/11,09:10,1.065,1.812,1.237,2.062,1.414,0.565,1.036,0.958,�k��,7.7,�L
2016/11/11,09:20,1.067,1.813,1.237,2.061,1.411,0.565,1.036,0.962,�k�k��,6.7,�L
2016/11/11,09:30,1.063,1.808,1.233,2.058,1.405,0.565,1.034,0.961,�k�k��,6.1,�L
2016/11/11,09:40,1.065,1.806,1.232,2.055,1.405,0.565,1.035,0.958,�k�k��,5.3,�L
2016/11/11,09:50,1.062,1.806,1.230,2.058,1.401,0.563,1.034,0.958,�k�k��,4.6,�L
2016/11/11,10:00,1.063,1.806,1.232,2.058,1.405,0.565,1.033,0.960,�k�k��,3.5,�L
2016/11/11,10:10,1.067,1.811,1.232,2.057,1.404,0.566,1.033,0.958,�k,3.6,�L
2016/11/11,10:20,1.065,1.803,1.231,2.056,1.398,0.566,1.031,0.959,�k�k��,3.0,�L
2016/11/11,10:30,1.060,1.799,1.228,2.048,1.392,0.564,1.028,0.955,���k��,8.6,�L
2016/11/11,10:40,1.058,1.795,1.226,2.049,1.391,0.565,1.029,0.957,��,2.5,�L
2016/11/11,10:50,1.061,1.799,1.224,2.048,1.392,0.564,1.029,0.956,��,8.1,�L
2016/11/11,11:00,1.061,1.800,1.226,2.044,1.390,0.565,1.029,0.956,�k��,4.7,�L
2016/11/11,11:10,1.066,1.810,1.230,2.050,1.400,0.566,1.031,0.958,�k�k��,5.5,��
2016/11/11,11:20,1.070,1.819,1.235,2.062,1.405,0.567,1.032,0.959,�k�k��,4.8,��
2016/11/11,11:30,1.073,1.822,1.238,2.066,1.407,0.567,1.033,0.960,�k�k��,4.9,��
2016/11/11,11:40,1.077,1.829,1.236,2.069,1.410,0.567,1.035,0.961,�k��,4.9,��
2016/11/11,11:50,1.080,1.831,1.237,2.066,1.412,0.567,1.033,0.961,�k�k��,4.7,�L
2016/11/11,12:00,1.077,1.831,1.238,2.069,1.413,0.567,1.032,0.962,�k�k��,4.2,�L
2016/11/11,12:10,1.077,1.832,1.235,2.068,1.412,0.568,1.032,0.962,�k�k��,5.2,��
2016/11/11,12:20,1.076,1.834,1.240,2.072,1.414,0.568,1.033,0.962,�k�k��,4.7,��
2016/11/11,12:30,1.076,1.833,1.237,2.068,1.416,0.568,1.035,0.961,�k�k��,5.3,�L
2016/11/11,12:40,1.076,1.833,1.237,2.072,1.415,0.568,1.034,0.961,�k�k��,5.6,�L
2016/11/11,12:50,1.075,1.833,1.235,2.070,1.418,0.568,1.036,0.963,�k�k��,5.6,�L
2016/11/11,13:00,1.073,1.834,1.236,2.069,1.416,0.566,1.036,0.963,�k�k��,6.5,�L
2016/11/11,13:10,1.077,1.834,1.237,2.071,1.416,0.567,1.037,0.963,�k�k��,6.5,��
2016/11/11,13:20,1.077,1.834,1.236,2.072,1.415,0.568,1.036,0.963,�k�k��,6.0,��
2016/11/11,13:30,1.075,1.834,1.239,2.072,1.418,0.569,1.035,0.964,�k��,6.4,��
2016/11/11,13:40,1.077,1.835,1.237,2.072,1.417,0.568,1.035,0.963,�k��,7.7,��
2016/11/11,13:50,1.075,1.834,1.238,2.076,1.419,0.569,1.040,0.964,�k��,8.6,��
2016/11/11,14:00,1.082,1.835,1.238,2.068,1.419,0.569,1.039,0.961,�k��,8.4,�L
2016/11/11,14:10,1.075,1.835,1.238,2.076,1.418,0.568,1.037,0.963,�k��,8.0,��
2016/11/11,14:20,1.077,1.835,1.236,2.073,1.419,0.569,1.037,0.964,�k��,8.0,��
2016/11/11,14:30,1.078,1.839,1.235,2.073,1.420,0.569,1.036,0.962,�k��,7.8,��
2016/11/11,14:40,1.078,1.835,1.237,2.073,1.418,0.569,1.037,0.963,�k��,6.5,�L
2016/11/11,14:50,1.076,1.831,1.236,2.074,1.417,0.568,1.036,0.963,�k��,6.1,��
2016/11/11,15:00,1.075,1.835,1.236,2.072,1.419,0.570,1.038,0.963,�k�k��,5.5,��
2016/11/11,15:10,1.077,1.837,1.239,2.070,1.420,0.569,1.036,0.963,�k�k��,6.9,��
2016/11/11,15:20,1.077,1.837,1.239,2.072,1.420,0.569,1.038,0.964,�k�k��,6.6,��
2016/11/11,15:30,1.079,1.837,1.237,2.073,1.419,0.568,1.039,0.965,�k�k��,7.6,��
2016/11/11,15:40,1.080,1.839,1.238,2.074,1.420,0.567,1.038,0.964,�k��,7.3,��
2016/11/11,15:50,1.079,1.839,1.239,2.070,1.420,0.568,1.041,0.965,�k��,7.8,��
2016/11/11,16:00,1.078,1.838,1.239,2.071,1.424,0.569,1.039,0.967,�k��,7.5,��
2016/11/11,16:10,1.076,1.840,1.238,2.070,1.425,0.569,1.041,0.963,�k��,7.6,��
2016/11/11,16:20,1.077,1.841,1.241,2.072,1.424,0.571,1.038,0.965,�k��,6.5,��
2016/11/11,16:30,1.080,1.838,1.241,2.073,1.423,0.569,1.039,0.965,�k��,6.4,��
2016/11/11,16:40,1.080,1.844,1.240,2.077,1.423,0.569,1.039,0.965,�k��,6.0,��
2016/11/11,16:50,1.079,1.841,1.239,2.074,1.426,0.570,1.040,0.963,�k�k��,5.6,��
2016/11/11,17:00,1.079,1.843,1.241,2.072,1.423,0.569,1.039,0.964,�k�k��,6.0,��
2016/11/11,17:10,1.078,1.844,1.241,2.074,1.423,0.571,1.043,0.964,�k�k��,6.3,��
2016/11/11,17:20,1.080,1.842,1.241,2.073,1.426,0.570,1.042,0.962,�k�k��,7.3,��
2016/11/11,17:30,1.079,1.838,1.240,2.074,1.427,0.570,1.041,0.965,�k�k��,6.2,��
2016/11/11,17:40,1.080,1.843,1.242,2.079,1.424,0.570,1.040,0.966,�k�k��,5.9,��
2016/11/11,17:50,1.079,1.842,1.242,2.077,1.427,0.568,1.042,0.964,�k��,6.2,��
2016/11/11,18:00,1.082,1.845,1.243,2.073,1.426,0.572,1.041,0.965,�k��,6.5,��
2016/11/11,18:10,1.080,1.845,1.241,2.077,1.426,0.569,1.041,0.966,�k��,6.2,��
2016/11/11,18:20,1.080,1.845,1.240,2.075,1.427,0.570,1.041,0.964,�k�k��,6.0,��
2016/11/11,18:30,1.081,1.842,1.243,2.079,1.426,0.571,1.042,0.965,�k�k��,5.7,��
2016/11/11,18:40,1.080,1.845,1.244,2.076,1.428,0.573,1.041,0.965,�k�k��,6.0,��
2016/11/11,18:50,1.082,1.846,1.240,2.076,1.426,0.572,1.042,0.966,�k�k��,5.8,��
2016/11/11,19:00,1.078,1.846,1.241,2.078,1.428,0.571,1.041,0.967,�k��,5.2,��
2016/11/11,19:10,1.081,1.843,1.241,2.077,1.430,0.571,1.043,0.965,�k��,5.1,��
2016/11/11,19:20,1.080,1.847,1.241,2.078,1.430,0.570,1.042,0.967,�k��,5.4,��
2016/11/11,19:30,1.081,1.848,1.242,2.079,1.430,0.570,1.042,0.966,�k��,4.5,�L
2016/11/11,19:40,1.082,1.843,1.241,2.078,1.427,0.571,1.043,0.963,�k��,5.2,�L
2016/11/11,19:50,1.081,1.845,1.241,2.078,1.427,0.572,1.041,0.966,�k��,5.3,�L
2016/11/11,20:00,1.077,1.845,1.240,2.079,1.425,0.572,1.041,0.965,�k��,5.1,�L
2016/11/11,20:10,1.079,1.840,1.238,2.077,1.429,0.572,1.041,0.966,�k��,5.1,�L
2016/11/11,20:20,1.077,1.836,1.238,2.075,1.424,0.571,1.041,0.964,�k��,5.3,�L
2016/11/11,20:30,1.075,1.833,1.239,2.074,1.425,0.571,1.039,0.966,�k��,4.9,��
2016/11/11,20:40,1.076,1.833,1.238,2.074,1.424,0.572,1.039,0.965,�k��,5.5,��
2016/11/11,20:50,1.077,1.836,1.237,2.074,1.424,0.571,1.041,0.965,�k��,6.3,��
2016/11/11,21:00,1.077,1.834,1.238,2.074,1.423,0.572,1.043,0.965,�k��,5.8,��
2016/11/11,21:10,1.076,1.832,1.235,2.072,1.423,0.571,1.042,0.963,�k��,5.9,��
2016/11/11,21:20,1.075,1.832,1.238,2.069,1.425,0.571,1.041,0.964,�k�k��,5.8,��
2016/11/11,21:30,1.075,1.832,1.238,2.070,1.425,0.571,1.039,0.964,�k�k��,6.0,��
2016/11/11,21:40,1.074,1.835,1.236,2.070,1.424,0.570,1.040,0.964,�k�k��,6.1,��
2016/11/11,21:50,1.076,1.834,1.237,2.073,1.424,0.571,1.040,0.964,�k�k��,6.0,��
2016/11/11,22:00,1.075,1.836,1.235,2.071,1.425,0.572,1.041,0.963,�k�k��,6.1,��
2016/11/11,22:10,1.074,1.836,1.237,2.071,1.425,0.570,1.041,0.964,�k�k��,5.4,��
2016/11/11,22:20,1.075,1.833,1.237,2.072,1.423,0.571,1.040,0.964,�k�k��,4.3,��
2016/11/11,22:30,1.076,1.838,1.238,2.071,1.425,0.571,1.041,0.964,�k�k��,3.6,��
2016/11/11,22:40,1.076,1.838,1.237,2.073,1.423,0.570,1.040,0.966,�k�k��,3.4,��
2016/11/11,22:50,1.076,1.836,1.237,2.070,1.423,0.570,1.041,0.964,�k�k��,4.1,��
2016/11/11,23:00,1.076,1.834,1.238,2.072,1.425,0.571,1.040,0.962,�k��,3.9,��
2016/11/11,23:10,1.075,1.838,1.235,2.071,1.425,0.571,1.044,0.965,���k��,4.1,��
2016/11/11,23:20,1.077,1.837,1.237,2.072,1.425,0.571,1.041,0.965,�k��,4.5,��
2016/11/11,23:30,1.077,1.838,1.237,2.069,1.424,0.572,1.040,0.964,�k��,3.5,��
2016/11/11,23:40,1.076,1.836,1.238,2.073,1.425,0.570,1.043,0.964,�k��,3.2,��
2016/11/11,23:50,1.078,1.838,1.239,2.072,1.424,0.571,1.043,0.966,�k�k��,2.6,��
